Powrót do katalogu

STARLINK-34563

AktywnyŁącznośćVLEO
NORAD 64708·PAYLOAD·🇺🇸 United States

Wystrzelony Jun 28, 2025 z Vandenberg Space Force Base

Loading…

Następne Przeloty (najbliższe 24 godziny)

TLE

ŚwieżeSource: CelesTrak SupGP

Epoka: Sep 15, 2026, 02:22 UTC

1 64708C 25142N   26258.09909722 -.00039415  00000+0 -13714-2 0  2589
2 64708  70.0013 195.1595 0002895 272.7292 164.7851 15.29593983    15

Śledź STARLINK-34563 w czasie rzeczywistym z AllMySat

Download on the App Store